Location: Blackwater Beach
(38.5801°N, 75.1577°W)
Time: 11:00:53
(UTC+00:00)

CZ-2D R/B - Pass Details

Date: 13 February 2026
Orbit: 383 x 391 km, 97.4° (Epoch: 11 March)

Event Time Altitude Azimuth Distance (km) Brightness Sun altitude
Rises 23:07:11 0° 177° (S) 2,295 6.6 -6.7°
Reaches altitude 10° 23:09:11 10° 182° (S) 1,439 5.6 -7.0°
Maximum altitude 23:12:11 51° 260° (W) 507 3.7 -7.6°
Drops below altitude 10° 23:15:11 10° 338° (NNW) 1,440 5.6 -8.2°
Sets 23:17:11 0° 343° (NNW) 2,297 6.6 -8.6°
